Zurück zum Katalog

FENGYUN 1C DEB

AktivSSO
NORAD 30325·DEBRIS·🇨🇳 China

Gestartet May 10, 1999 von Taiyuan Satellite Launch Center

Loading…

Nächste Überflüge (nächste 24 Stunden)

TLE

AktuellSource: Space-Track

Epoche: Sep 11, 2026, 11:50 UTC

1 30325U 99025AAL 26254.49323526  .00000061  00000-0  59768-4 0  9997
2 30325  98.7191 270.2498 0015831 199.0982 160.9597 14.09185919  8460

Verfolge FENGYUN 1C DEB in Echtzeit mit AllMySat

Download on the App Store